Wind_Speed
28 31 31 32 32 34 35 34 34 33 32 29 27 25 22 22 21 21 22 23 24 22 21 22 21 22 22 22 23 23 23 23 20 20 21 21 22 22 22 22 22 22 21
30 33 33 34 34 35 35 34 33 32 31 27 25 24 22 22 21 22 25 25 24 22 22 23 22 19 20 21 23 22 23 21 20 21 21 21 21 21 20 20 20 21 21
31 33 32 34 35 35 35 33 29 28 28 26 24 22 21 21 23 24 26 27 24 23 22 22 20 22 18 19 22 23 22 20 20 21 22 22 20 19 19 19 20 19 19
30 32 32 33 33 33 31 30 28 25 26 23 22 21 21 22 24 25 27 28 26 24 23 23 23 24 25 24 23 21 20 20 19 20 22 21 20 18 19 20 20 20 19
28 30 32 32 33 33 31 29 26 25 23 21 21 21 22 22 23 25 27 29 27 25 24 26 26 25 26 26 24 21 19 19 19 21 21 20 19 17 18 19 19 19 18
26 28 31 32 32 31 29 27 24 24 22 21 21 21 21 20 23 25 26 28 27 25 28 27 26 25 24 24 22 19 19 19 19 19 19 17 16 15 16 17 17 18 18
24 29 30 30 31 30 26 24 22 21 20 20 20 21 21 21 23 24 26 27 27 27 26 26 25 23 22 21 19 18 18 17 17 17 16 14 13 13 13 14 15 16 17
25 30 30 28 27 28 23 18 18 21 20 19 19 21 21 21 23 23 24 24 23 24 24 22 21 22 20 20 18 17 15 16 16 14 12 12 11 11 11 12 13 15 17
24 30 29 28 28 28 24 18 19 18 19 19 19 19 20 22 22 22 21 20 19 19 20 20 18 20 20 19 18 15 14 15 13 12 10 11 9 9 9 10 11 13 16
27 29 26 27 26 24 21 20 19 19 20 20 19 21 21 21 19 19 18 17 16 17 17 18 21 20 19 19 17 15 15 11 10 10 8 8 6 5 6 7 8 11 14
23 24 28 30 25 22 17 17 18 19 19 20 21 21 21 20 18 17 16 16 15 16 14 16 16 17 17 18 16 14 10 9 7 7 5 4 6 4 5 5 6 8 9
22 20 25 30 39 20 18 17 18 19 20 20 22 20 19 18 18 17 15 13 12 12 13 15 14 15 15 16 15 13 12 10 9 7 5 4 4 4 3 4 4 6 7
35 27 19 29 23 18 18 18 19 21 20 20 21 19 17 16 16 13 12 11 11 12 14 14 14 13 13 13 13 12 11 9 9 9 8 6 4 3 1 4 3 4 6
36 31 21 26 19 14 16 17 18 21 21 21 19 17 14 12 11 11 12 14 14 14 15 13 12 11 10 10 9 9 9 9 9 9 9 8 6 3 2 3 2 4 6
31 35 40 29 12 12 13 15 17 19 20 19 17 13 14 13 14 15 15 16 16 14 12 12 10 9 9 9 9 9 9 10 11 11 12 11 5 3 0 2 3 3 4
33 32 36 25 18 16 15 17 20 19 17 15 15 15 14 14 14 15 17 16 15 11 11 11 11 10 10 9 10 10 10 11 12 14 15 12 3 3 5 4 2 2 3
26 27 26 23 18 17 18 18 19 18 17 16 15 14 13 13 15 15 15 15 14 13 11 9 10 9 8 9 10 10 10 10 10 12 13 10 4 6 6 6 2 2 1
21 25 17 15 18 17 19 20 19 18 17 16 14 13 14 15 15 15 16 16 14 11 8 6 7 8 7 8 9 12 7 8 8 11 12 12 8 4 3 3 2 2 1
28 23 19 16 19 19 20 19 19 18 17 15 14 15 17 16 15 15 15 15 12 8 7 5 6 5 6 7 7 11 2 6 8 10 13 7 7 7 6 4 3 5 4
29 23 20 20 21 21 21 20 19 18 17 16 16 17 17 17 17 15 15 13 9 6 4 4 4 4 5 3 1 8 2 5 5 7 9 6 12 8 4 7 8 8 9
20 20 22 25 25 25 25 23 21 21 19 18 17 17 18 18 16 14 13 10 8 4 2 3 2 2 2 1 2 6 3 7 6 1 6 2 12 4 7 13 10 10 11
24 23 24 27 29 28 29 28 24 23 20 17 17 18 18 16 14 13 10 8 7 4 6 4 1 1 2 1 1 0 2 4 9 11 10 6 5 6 12 14 11 11 11
30 30 32 32 31 31 32 28 20 21 17 18 20 20 18 16 14 11 10 9 8 6 5 4 3 2 1 2 4 1 1 3 3 5 6 8 7 9 14 11 13 13 13
33 33 33 34 32 33 30 29 25 25 22 21 26 21 19 17 16 13 10 9 6 5 5 4 2 2 2 3 4 6 8 8 3 3 6 5 11 11 13 18 19 14 13
27 31 32 31 31 32 33 29 24 26 23 19 24 21 20 18 14 12 10 7 6 7 5 3 2 2 3 4 4 5 7 10 11 8 3 6 10 13 12 20 16 15 11
25 28 30 31 31 32 33 28 26 23 23 18 24 23 20 16 14 13 9 9 9 5 6 4 3 5 4 3 4 7 8 7 6 9 6 10 10 11 11 13 16 12 9
Wind_Direction
157 156 152 147 141 135 131 130 130 128 127 126 126 126 125 121 120 115 110 105 100 98 97 100 99 100 105 107 104 102 98 96 90 85 83 78 74 68 65 60 56 55 55
154 157 154 150 143 139 134 131 130 129 126 124 126 126 126 123 120 118 114 108 102 99 101 103 100 105 113 116 111 103 99 94 91 86 81 75 70 68 66 64 61 56 52
153 159 154 150 144 139 135 131 131 129 124 126 129 128 128 125 122 120 116 109 103 100 101 98 98 95 109 127 115 104 98 94 86 82 77 73 70 67 64 61 60 58 53
154 158 154 149 145 140 137 136 133 133 123 133 129 128 127 126 124 121 115 108 104 104 102 97 100 95 94 113 116 109 103 94 87 82 78 76 73 70 65 59 56 55 51
153 156 153 151 147 143 140 136 134 133 130 133 127 129 128 127 123 119 115 110 106 102 96 94 97 101 98 107 115 108 100 94 90 84 80 76 72 64 60 55 49 47 43
151 159 157 153 146 142 138 136 139 124 134 133 130 130 127 125 121 119 114 111 106 103 100 97 96 99 102 107 109 106 101 98 93 88 85 80 74 67 57 51 46 42 38
159 162 157 154 147 141 136 137 136 131 139 124 132 130 128 126 123 119 116 113 108 103 101 100 100 103 104 104 106 107 102 94 90 89 82 75 67 62 55 49 43 36 31
168 161 154 152 146 134 130 134 135 143 127 133 137 133 130 127 122 118 115 113 109 105 102 98 101 98 95 99 107 106 96 97 92 81 74 69 59 55 53 41 35 31 23
154 148 146 144 141 132 136 152 146 146 132 138 138 131 126 125 121 117 113 111 108 103 101 95 98 97 97 95 95 94 92 95 81 69 66 60 47 54 51 52 40 31 25
135 138 136 132 128 127 144 159 151 137 137 140 137 130 127 123 121 116 112 110 108 106 103 96 94 105 101 97 95 97 101 92 80 80 80 78 50 54 58 51 36 31 23
136 143 145 134 130 136 143 156 148 138 141 141 139 134 129 128 122 116 114 114 113 107 103 108 103 101 101 96 98 101 99 86 82 87 80 68 65 48 71 59 40 35 38
126 117 128 125 135 155 166 159 144 144 148 147 141 134 131 128 123 122 124 121 116 113 110 108 108 101 92 89 89 88 84 78 76 80 66 64 57 39 83 80 65 32 40
118 118 129 138 155 169 166 156 152 154 151 145 141 139 137 130 129 135 132 131 129 123 119 116 106 93 86 84 81 77 70 64 57 52 43 38 39 37 132 129 66 51 61
127 131 133 151 179 177 169 161 162 161 156 150 151 152 147 141 146 144 147 135 133 126 121 108 99 94 86 72 65 56 44 33 24 10 4 6 8 46 164 143 97 80 67
146 148 144 160 194 205 177 171 172 167 161 160 160 163 164 152 144 141 137 135 128 125 117 108 98 86 77 69 58 41 31 20 12 3 358 357 2 94 136 183 140 101 73
155 160 168 189 214 196 186 185 174 169 171 174 174 168 161 167 160 149 141 132 126 125 113 102 88 79 76 64 59 49 41 24 11 2 359 8 52 112 101 115 138 122 80
173 176 190 208 202 201 187 186 178 177 173 167 168 170 173 175 161 159 148 137 132 121 107 97 85 79 73 64 57 40 24 25 26 36 37 36 78 121 132 90 84 129 95
182 188 205 207 198 194 187 184 183 183 179 178 175 178 171 166 169 163 151 140 130 124 112 94 86 82 65 52 48 24 34 70 71 61 48 47 57 77 62 52 142 160 257
196 209 212 212 197 191 186 188 188 183 182 178 174 167 166 166 169 161 152 143 138 134 117 83 94 67 60 48 43 13 56 107 98 54 31 34 36 8 353 345 284 259 267
209 220 223 213 199 193 190 186 182 181 181 180 173 169 166 168 166 161 151 144 145 132 119 102 81 75 60 47 240 344 217 165 142 43 33 37 0 342 6 339 309 283 272
203 209 206 199 197 193 185 180 179 176 175 168 167 168 169 169 163 163 159 153 155 155 138 149 127 115 145 315 246 321 218 202 216 301 12 347 332 287 326 332 302 279 266
205 203 204 203 198 199 196 189 186 181 176 176 175 174 178 175 172 173 171 165 168 173 168 169 175 142 202 238 295 353 0 270 251 249 303 279 300 288 308 308 298 281 266
211 210 208 208 204 199 197 189 187 178 175 182 181 183 184 187 186 183 178 174 172 166 175 210 224 216 286 269 235 234 38 242 307 271 238 269 244 293 309 300 303 289 281
207 212 211 212 208 201 199 196 191 185 179 194 192 187 184 182 186 186 182 174 169 201 198 224 202 207 237 288 290 252 256 268 228 315 246 253 272 290 310 313 305 288 277
208 212 212 213 210 207 206 204 197 200 204 199 193 189 190 191 192 186 186 187 196 192 188 181 213 282 305 279 275 281 268 265 263 246 269 264 256 272 288 309 304 294 268
205 210 212 211 211 214 212 207 204 209 212 195 189 190 188 189 191 196 191 199 177 216 218 186 269 304 292 280 285 284 276 268 263 250 242 257 250 282 278 300 313 287 263
Height
788 793 798 802 804 806 808 811 813 815 818 821 824 826 829 830 831 833 832 836 837 838 838 839 841 842 842 843 844 844 844 844 847 846 848 848 845 846 846 847 846 843 841
787 792 797 802 803 806 809 812 815 816 816 821 824 828 831 832 833 836 834 837 839 840 841 842 842 844 844 845 846 846 846 848 849 848 848 848 848 849 849 850 848 847 846
787 792 797 802 804 807 810 813 817 818 818 822 827 829 832 833 834 837 837 839 841 842 845 846 845 844 844 845 847 848 849 850 851 850 849 851 851 852 852 851 849 848 848
790 794 798 803 805 807 811 814 816 821 818 826 826 830 833 836 837 838 839 840 844 844 846 847 846 846 846 847 850 850 850 849 852 851 851 853 855 855 854 853 852 849 851
793 796 799 803 806 808 811 815 818 822 822 827 827 831 835 839 839 840 841 843 847 848 849 849 849 849 850 850 852 852 853 852 854 853 854 856 857 857 856 855 855 852 852
794 799 802 804 807 811 814 818 823 820 826 828 830 834 837 841 842 844 845 846 849 850 849 852 851 852 852 853 853 854 854 855 854 857 857 858 858 858 857 857 857 855 854
795 800 803 807 809 812 817 821 825 825 830 830 834 837 839 843 844 846 846 848 850 851 851 852 852 853 854 854 855 856 856 857 858 859 859 861 859 860 859 857 857 857 856
797 801 805 808 812 813 821 827 827 829 828 834 839 839 842 845 847 849 849 850 852 853 853 853 856 855 856 855 858 858 858 858 860 861 862 862 861 863 861 859 859 858 857
797 802 806 808 812 814 819 828 830 833 832 837 842 842 845 846 848 850 852 853 854 855 854 856 856 857 857 858 861 862 861 861 861 863 865 863 863 863 863 861 861 859 858
802 804 807 808 811 813 824 829 831 832 835 839 843 844 846 849 851 853 853 855 857 856 856 858 858 859 860 860 860 863 863 863 863 863 865 864 864 864 864 862 861 860 859
806 809 811 811 819 823 826 830 831 832 838 841 843 845 847 850 851 853 855 856 858 856 859 858 860 860 861 860 863 864 864 864 864 863 865 864 864 864 863 862 862 861 859
805 808 807 814 823 825 829 833 832 836 840 842 844 847 849 851 852 853 855 857 859 859 861 860 862 863 862 862 863 865 865 866 865 863 865 864 864 863 862 862 862 861 860
807 810 815 820 826 828 832 833 834 838 842 844 845 849 852 852 853 856 855 857 859 860 861 861 862 863 863 864 864 866 866 866 865 864 864 863 863 863 862 862 861 861 861
809 819 820 818 823 827 832 833 836 838 841 843 847 850 852 852 853 854 857 856 859 861 862 862 864 864 866 865 865 865 866 867 864 864 864 863 862 862 862 862 862 862 861
810 812 821 823 823 828 829 833 838 840 842 846 848 850 850 852 854 854 856 858 859 862 863 863 866 867 867 867 866 866 866 866 864 863 863 862 861 861 862 862 862 862 862
813 818 822 823 828 829 829 835 837 840 844 845 847 849 850 853 855 855 858 859 860 863 865 866 867 869 868 868 867 868 866 865 864 862 861 860 859 860 861 862 862 862 862
814 817 822 825 825 828 830 835 838 841 843 845 848 849 850 854 855 858 858 858 862 864 865 867 868 868 870 870 869 868 866 865 865 864 864 862 861 861 861 861 862 862 862
812 815 820 821 824 827 830 835 838 840 843 846 847 849 850 853 856 858 857 859 863 865 866 867 868 869 871 870 870 868 866 866 866 866 866 865 863 863 862 862 862 862 861
811 815 819 821 825 828 831 835 839 839 842 845 847 848 851 852 857 856 859 860 863 866 866 867 868 870 871 870 869 868 866 866 866 866 866 865 864 863 863 862 862 861 860
811 815 817 820 824 828 831 836 838 839 842 844 846 848 849 852 855 857 859 861 863 866 867 867 868 870 869 869 868 867 866 866 866 866 866 864 864 863 862 862 861 860 858
810 813 815 818 822 825 828 832 836 838 841 843 845 848 850 853 855 858 859 861 863 865 866 867 868 868 867 868 867 866 865 865 865 865 864 864 864 863 861 861 859 858 857
806 809 812 815 818 822 825 829 832 836 839 842 844 847 851 853 855 858 859 860 863 865 866 867 867 867 867 866 866 866 866 865 863 862 862 862 862 862 861 859 858 856 855
800 803 808 812 815 819 824 827 831 835 838 842 844 847 850 852 855 857 858 860 862 863 864 865 864 865 866 866 866 865 866 866 862 859 859 859 859 859 859 857 856 855 853
794 800 805 809 814 819 822 825 827 831 835 838 842 845 849 851 853 855 857 858 860 862 861 863 863 863 863 864 864 862 862 862 863 861 858 857 857 857 856 855 852 851 850
794 798 802 806 811 817 821 822 826 831 834 836 840 843 846 848 851 853 854 857 857 858 860 860 863 863 861 861 861 860 859 859 860 860 857 855 854 853 852 850 848 847 846
791 796 800 803 809 813 818 821 824 827 831 833 836 840 843 847 850 852 855 855 855 858 858 857 860 859 859 858 857 857 856 856 856 856 855 851 849 848 848 848 846 844 843